[[{"header":{"parameterUnit":"m.s-1","parameterCategory":2,"la1":30.2991,"la2":30.254,"lo1":-89.0895,"lo2":-89.0444,"dy":0.0017,"dx":0.0017,"nx":28,"ny":28,"refTime":"2024-04-03T21:00:00:Z","depth":"0","parameterNumber":2,"parameterNumberName":"U-component_of_CURRENTS"},"data":[0,0,0,0,0,0,0,0,0,0,0,0,0,0,0,0,0,0,0,0,0,0,0,0,0,0,0,0,0,0,0,0,0,0,0,0,0,0,0,0,0,0,0,0,0,0,0,0,0,0,0,0,0,0,0,0,0,0,0.2297,0.2297,0,0.2341,0.2341,0.2342,0.2391,0.2391,0.2392,0.2393,0.2553,0.2557,0.2561,0,0,0,0,0,0,0,0,0,0,0,0,0,0.2225,0.2226,0.2297,0.2297,0.2298,0.2341,0.2341,0.2342,0.239,0.2391,0.2392,0.2393,0.2552,0.2557,0.2561,0,0,0,0,0,0,0,0,0,0,0,0,0,0.2262,0.2227,0.2297,0.2327,0.233,0.2341,0.2341,0.2342,0.239,0.2391,0.2392,0.2393,0.2551,0.2556,0.2562,0.2575,0,0,0.2578,0.2581,0,0,0,0,0,0,0,0,0.2259,0.2264,0.2322,0.2325,0.2329,0.2361,0.2375,0.2426,0.239,0.2368,0.2393,0.2394,0.2499,0.2509,0.2513,0.2582,0.2589,0.2579,0.2582,0.2584,0.2586,0,0,0,0,0,0,0,0.2257,0.2262,0.2315,0.2323,0.2326,0.2328,0.2335,0.2384,0.2429,0.237,0.2373,0.2377,0.2502,0.2508,0.2518,0.2591,0.2579,0.2583,0.2587,0.2589,0.2666,0.2665,0,0,0,0,0,0,0.2252,0.226,0.2313,0.2316,0.2296,0.2329,0.2336,0.235,0.2427,0.2438,0.2377,0.238,0.2498,0.2511,0.2524,0.2571,0.2584,0.2589,0.2593,0.2667,0.2666,0.2664,0,0,0,0,0,0,0.225,0.2256,0.2311,0.2288,0.2295,0.2329,0.2344,0.235,0.2364,0.243,0.2445,0.2385,0.2499,0.2516,0.2553,0.2577,0.2592,0.2597,0.2669,0.2667,0.2665,0.2649,0,0,0,0,0,0,0.2248,0.2256,0.2259,0.2288,0.2296,0.2332,0.2343,0.235,0.2365,0.2369,0.2443,0.2458,0.2502,0.2544,0.2559,0.2585,0.2601,0.267,0.2668,0.2666,0.2651,0.2647,0.2643,0,0,0,0,0,0.2245,0.2256,0.2259,0.2266,0.2302,0.2332,0.2337,0.2363,0.2364,0.2378,0.2403,0.2456,0.254,0.2548,0.2565,0.2593,0.2671,0.2668,0.2666,0.2653,0.2648,0.2643,0,0,0,0,0,0,0.2223,0.2262,0.2267,0.2287,0.231,0.2341,0.2352,0.236,0.2388,0.2391,0.2444,0.2461,0.2507,0.2534,0.254,0.26,0.2613,0.2614,0.2598,0.2594,0.259,0.2621,0.2606,0,0,0,0,0,0.2218,0.224,0.227,0.2284,0.2297,0.2319,0.2331,0.2347,0.2374,0.2387,0.2431,0.2467,0.2505,0.2535,0.2576,0.2609,0.2626,0.2632,0.2628,0.2625,0.2657,0.2667,0.2668,0.2655,0.2655,0.2655,0,0,0.2212,0.2235,0.2246,0.2281,0.23,0.2322,0.233,0.2352,0.2371,0.2402,0.2441,0.2465,0.2508,0.2547,0.2569,0.2577,0.2628,0.2621,0.2619,0.2653,0.2664,0.2666,0.2667,0.2653,0.2654,0.2654,0,0,0.2213,0.2233,0.2251,0.2273,0.2302,0.2321,0.2326,0.2357,0.2376,0.2404,0.2425,0.2454,0.2514,0.2548,0.2572,0.2567,0.2608,0.2573,0.259,0.2598,0.26,0.2603,0.2595,0.2597,0.2571,0.2571,0.2571,0,0.2198,0.2226,0.2259,0.2281,0.2294,0.232,0.2335,0.2362,0.2398,0.2413,0.242,0.2481,0.2523,0.2565,0.2567,0.2568,0.2568,0.261,0.2597,0.2599,0.2602,0.2594,0.2597,0.257,0.257,0.257,0.257,0,0.2213,0.2233,0.2247,0.2285,0.2308,0.2324,0.2364,0.2387,0.2405,0.2428,0.247,0.2503,0.2542,0.2551,0.2572,0.2606,0.2595,0.2592,0.2617,0.2603,0.2594,0.2597,0.2568,0.2568,0.2569,0.2569,0,0,0.2167,0.2242,0.2241,0.2259,0.2307,0.2324,0.2366,0.2405,0.2427,0.2464,0.2493,0.2549,0.256,0.2586,0.2601,0.262,0.2631,0.262,0.2621,0.2628,0.2635,0.2517,0.2509,0.2621,0.2622,0.2623,0.2611,0,0.2156,0.2197,0.2237,0.2265,0.2286,0.2329,0.2366,0.2406,0.2443,0.2483,0.2521,0.2554,0.2574,0.2583,0.261,0.2632,0.2643,0.2634,0.2636,0.2637,0.2547,0.251,0.2399,0.237,0.2614,0.2614,0.2615,0,0.2135,0.2171,0.2199,0.2259,0.227,0.2292,0.2343,0.238,0.2449,0.2478,0.2521,0.2552,0.26,0.2605,0.265,0.264,0.2649,0.2659,0.2658,0.2569,0.2525,0.2428,0.2367,0.2328,0.2619,0.2619,0.2619,0,0.2069,0.2132,0.2152,0.2171,0.2248,0.2265,0.2301,0.2369,0.2395,0.2468,0.2483,0.255,0.2561,0.2604,0.2622,0.2642,0.265,0.2671,0.2572,0.2563,0.2482,0.2464,0.2404,0.2702,0.2702,0.2702,0.2702,0,0.2026,0.204,0.2123,0.2131,0.2154,0.2221,0.2246,0.2298,0.2361,0.238,0.2465,0.2476,0.2562,0.2573,0.2613,0.2577,0.2631,0.2579,0.2553,0.2465,0.2446,0.2421,0.2416,0.2701,0.2701,0.2701,0.2701,0,0.1947,0.2,0.2025,0.2101,0.212,0.2132,0.2195,0.2215,0.2284,0.231,0.2325,0.2409,0.2426,0.2476,0.2525,0.2524,0.2446,0.2498,0.2376,0.2335,0.2215,0.2213,0.2055,0.2,0.2413,0.241,0.2407,0,0.1915,0.1921,0.1982,0.199,0.202,0.2054,0.2073,0.2157,0.2176,0.2252,0.225,0.2285,0.2302,0.2313,0.2315,0.2326,0.2306,0.2212,0.2241,0.2185,0.2166,0.2101,0.2064,0.2125,0.2121,0.2117,0.2114,0,0.1858,0.1872,0.1896,0.1911,0.1925,0.1946,0.1982,0.1985,0.2073,0.2094,0.2119,0.2143,0.2154,0.211,0.2094,0.2099,0.2091,0.2133,0.2119,0.1968,0.1852,0.1793,0.2155,0.208,0.2084,0.2086,0.2088,0.2089,0.1808,0.1803,0.1827,0.183,0.1841,0.1835,0.1818,0.1858,0.1868,0.1884,0.1962,0.1953,0.1951,0.1927,0.1899,0.1794,0.1846,0.1776,0.1789,0.1736,0.164,0.1906,0.1769,0.177,0.1772,0.1773,0.1774,0,0.175,0.1749,0.1749,0.1743,0.1711,0.175,0.175,0.1719,0.1691,0.1731,0.1745,0.1711,0.1649,0.1642,0.1555,0.1483,0.1449,0.1447,0.1378,0.1373,0.1651,0.1597,0.1361,0.1362,0.1362,0.1362,0.1362,0.1362,0.1722,0.1695,0.1689,0.162,0.1606,0.1547,0.1526,0.1494,0.1501,0.1449,0.1418,0.1434,0.1454,0.1383,0.1286,0.1263,0.1209,0.1098,0.1148,0.1405,0.1439,0.1471,0.142,0.1151,0.1151,0.0808,0.0805,0.0804]},{"header":{"parameterUnit":"m.s-1","parameterCategory":2,"la1":30.2991,"la2":30.254,"lo1":-89.0895,"lo2":-89.0444,"dy":0.0017,"dx":0.0017,"nx":28,"ny":28,"refTime":"2024-04-03T21:00:00:Z","depth":"0","parameterNumber":3,"parameterNumberName":"V-component_of_CURRENTS"},"data":[0,0,0,0,0,0,0,0,0,0,0,0,0,0,0,0,0,0,0,0,0,0,0,0,0,0,0,0,0,0,0,0,0,0,0,0,0,0,0,0,0,0,0,0,0,0,0,0,0,0,0,0,0,0,0,0,0,0,-0.0071,-0.0072,0,-0.0138,-0.0139,-0.014,-0.0208,-0.0209,-0.021,-0.0211,-0.036,-0.0363,-0.0366,0,0,0,0,0,0,0,0,0,0,0,0,0,-0.0014,-0.0015,-0.0071,-0.0072,-0.0073,-0.0137,-0.0139,-0.014,-0.0208,-0.0209,-0.021,-0.0211,-0.0359,-0.0362,-0.0366,0,0,0,0,0,0,0,0,0,0,0,0,0,-0.0058,-0.0016,-0.0071,-0.0113,-0.0117,-0.0137,-0.0139,-0.014,-0.0208,-0.0209,-0.021,-0.0211,-0.0357,-0.0362,-0.0367,-0.0376,0,0,-0.0382,-0.0384,0,0,0,0,0,0,0,0,-0.0056,-0.0061,-0.0106,-0.011,-0.0114,-0.0163,-0.0173,-0.0222,-0.0208,-0.0176,-0.0211,-0.0212,-0.0299,-0.0309,-0.0322,-0.0383,-0.039,-0.0383,-0.0386,-0.0388,-0.0389,0,0,0,0,0,0,0,-0.0053,-0.0058,-0.01,-0.0106,-0.0112,-0.0131,-0.0139,-0.0183,-0.0235,-0.0179,-0.0184,-0.0186,-0.0303,-0.0317,-0.0326,-0.0392,-0.0383,-0.0387,-0.039,-0.0392,-0.0408,-0.0406,0,0,0,0,0,0,-0.0037,-0.0055,-0.0098,-0.0102,-0.0084,-0.0131,-0.014,-0.0149,-0.0233,-0.0245,-0.0185,-0.0189,-0.0308,-0.032,-0.0332,-0.0317,-0.0388,-0.0392,-0.0395,-0.0411,-0.0408,-0.0405,0,0,0,0,0,0,-0.0036,-0.0041,-0.0096,-0.0078,-0.0086,-0.013,-0.0141,-0.015,-0.0161,-0.0236,-0.0251,-0.0187,-0.0309,-0.0325,-0.0347,-0.0325,-0.0395,-0.0399,-0.0414,-0.041,-0.0406,-0.0308,0,0,0,0,0,0,-0.0034,-0.004,-0.0038,-0.0077,-0.0086,-0.0096,-0.0139,-0.015,-0.016,-0.0166,-0.0242,-0.0257,-0.0311,-0.0339,-0.0352,-0.0333,-0.0403,-0.0417,-0.0412,-0.0408,-0.0314,-0.0301,-0.029,0,0,0,0,0,-0.0032,-0.0025,-0.0038,-0.0043,-0.0083,-0.0094,-0.0101,-0.0138,-0.0159,-0.0155,-0.0195,-0.0255,-0.0318,-0.0341,-0.0357,-0.0339,-0.0419,-0.0413,-0.0408,-0.032,-0.0303,-0.029,0,0,0,0,0,0,-0.0,-0.0032,-0.0047,-0.0051,-0.0064,-0.0105,-0.0104,-0.0127,-0.0155,-0.0163,-0.0234,-0.0251,-0.0261,-0.0302,-0.0326,-0.0322,-0.0374,-0.0371,-0.0301,-0.0286,-0.0274,-0.0269,-0.0407,0,0,0,0,0,0.001,0.0007,-0.0022,-0.0021,-0.0026,-0.0061,-0.0069,-0.0091,-0.0122,-0.0136,-0.0186,-0.0225,-0.0248,-0.0269,-0.0301,-0.0308,-0.0336,-0.0298,-0.0286,-0.0275,-0.0277,-0.028,-0.0269,-0.0386,-0.0386,-0.0386,0,0,0.0022,0.0007,0.0004,-0.0014,-0.003,-0.0028,-0.0069,-0.0073,-0.007,-0.0148,-0.0159,-0.0191,-0.0237,-0.024,-0.0247,-0.0275,-0.0252,-0.0268,-0.0259,-0.0267,-0.0273,-0.0262,-0.0253,-0.0382,-0.0383,-0.0384,0,0,0.005,0.0034,0.0041,0.0035,0.0022,0.0004,0.001,-0.0022,-0.0034,-0.004,-0.0085,-0.0093,-0.0145,-0.0164,-0.0182,-0.0117,-0.0186,-0.0125,-0.0069,-0.0071,-0.0062,-0.0055,-0.0061,-0.0055,-0.012,-0.012,-0.012,0,0.0067,0.0067,0.0045,0.0054,0.0054,0.0025,0.0038,0.0028,-0.0005,-0.0005,-0.0029,-0.0064,-0.0105,-0.0099,-0.0073,-0.0093,-0.0109,-0.0127,-0.0057,-0.0051,-0.0045,-0.0053,-0.0048,-0.0114,-0.0115,-0.0116,-0.0116,0,0.0098,0.01,0.0109,0.0107,0.0109,0.0118,0.0104,0.0107,0.0092,0.0077,0.0082,0.0043,0.002,0.002,-0.0015,0.0015,-0.0013,-0.0042,-0.0101,-0.0028,-0.004,-0.0037,-0.0107,-0.0109,-0.011,-0.0112,0,0,0.0129,0.0128,0.0132,0.0141,0.0138,0.0145,0.0162,0.0169,0.0185,0.0166,0.0185,0.0166,0.0143,0.0125,0.0092,0.0092,0.0125,0.0046,0.0043,0.0029,0.0118,0.0099,0.01,0.0103,0.0104,0.0105,0.0098,0,0.0159,0.0187,0.0178,0.021,0.0223,0.0211,0.0232,0.0238,0.0235,0.0247,0.0228,0.0228,0.0185,0.0181,0.0178,0.0132,0.0137,0.0129,0.0058,0.0056,0.0021,0.0105,0.0123,0.0118,0.0101,0.0102,0.0102,0,0.0192,0.0206,0.0241,0.0261,0.0267,0.0285,0.0316,0.0329,0.0341,0.0338,0.0339,0.0313,0.0314,0.0268,0.0234,0.0229,0.0186,0.0152,0.015,0.0095,0.0043,0.0041,0.0124,0.0087,0.0107,0.0106,0.0106,0,0.023,0.0251,0.0284,0.0291,0.031,0.0331,0.0344,0.0361,0.0385,0.0398,0.0415,0.0397,0.0393,0.0347,0.0273,0.0255,0.0231,0.0194,0.014,0.0137,0.0119,0.0114,0.0146,0.018,0.018,0.018,0.018,0,0.0266,0.029,0.0306,0.0326,0.0373,0.0371,0.0423,0.0432,0.0458,0.0501,0.0466,0.0492,0.0412,0.0383,0.0309,0.0241,0.0259,0.0165,0.0142,0.0157,0.0155,0.0091,0.0057,0.018,0.018,0.018,0.018,0,0.0298,0.0308,0.0347,0.0378,0.0393,0.0429,0.0474,0.0511,0.0524,0.058,0.059,0.057,0.0529,0.0445,0.0366,0.029,0.0199,0.019,0.0211,0.0191,0.0098,0.0069,0.0058,0.0035,0.0137,0.0136,0.0136,0,0.0313,0.0338,0.0391,0.0423,0.0439,0.0487,0.0526,0.0548,0.0591,0.0633,0.067,0.0643,0.0641,0.0515,0.0379,0.026,0.02,0.0185,0.0155,0.0115,0.0065,0.005,0.003,0.0177,0.0177,0.0177,0.0177,0,0.0341,0.0365,0.0401,0.0468,0.0517,0.0574,0.0629,0.0674,0.0712,0.0757,0.0807,0.0808,0.0687,0.0579,0.0401,0.0305,0.0168,0.0181,0.0142,0.011,0.0093,0.0053,0.0153,0.0177,0.0177,0.0177,0.0177,0.0177,0.0364,0.0397,0.045,0.0515,0.0575,0.0655,0.0708,0.0773,0.0851,0.0926,0.0911,0.0931,0.077,0.0532,0.0395,0.0174,0.0164,0.0112,0.0082,0.0073,0.0049,0.0147,0.014,0.0139,0.0139,0.0139,0.0139,0,0.0385,0.0428,0.0489,0.057,0.0641,0.0669,0.0773,0.0835,0.0936,0.1004,0.1044,0.0985,0.0792,0.0572,0.0278,0.0123,0.0062,0.0037,0.0031,0.0015,0.0112,0.0111,0.0095,0.0095,0.0095,0.0095,0.0095,0.0095,0.0398,0.0458,0.0492,0.0608,0.0667,0.0766,0.083,0.0934,0.1011,0.1103,0.1124,0.1117,0.0973,0.0489,0.0168,0.0072,-0.0026,-0.0057,-0.0108,-0.0034,-0.0028,-0.0024,-0.003,-0.0076,-0.0076,-0.0175,-0.0176,-0.0177]}],[{"header":{"parameterUnit":"m.s-1","parameterCategory":2,"la1":30.2991,"la2":30.254,"lo1":-89.0895,"lo2":-89.0444,"dy":0.0017,"dx":0.0017,"nx":28,"ny":28,"refTime":"2024-04-03T21:00:00:Z","depth":"2","parameterNumber":2,"parameterNumberName":"U-component_of_CURRENTS"},"data":[0,0,0,0,0,0,0,0,0,0,0,0,0,0,0,0,0,0,0,0,0,0,0,0,0,0,0,0,0,0,0,0,0,0,0,0,0,0,0,0,0,0,0,0,0,0,0,0,0,0,0,0,0,0,0,0,0,0,0.172,0.172,0,0.1749,0.175,0.175,0.1793,0.1793,0.1794,0.1795,0.1922,0.1925,0.1927,0,0,0,0,0,0,0,0,0,0,0,0,0,0.172,0.172,0.172,0.172,0.172,0.1749,0.175,0.175,0.1793,0.1794,0.1794,0.1795,0.1921,0.1924,0.1928,0,0,0,0,0,0,0,0,0,0,0,0,0,0.1731,0.172,0.172,0.1746,0.1748,0.1749,0.175,0.175,0.1792,0.1794,0.1795,0.1796,0.192,0.1924,0.1928,0.1929,0,0,0.194,0.1942,0,0,0,0,0,0,0,0,0.1731,0.1731,0.1741,0.1744,0.1747,0.1769,0.1796,0.1815,0.1792,0.1775,0.1795,0.1796,0.188,0.1887,0.1888,0.1935,0.194,0.1941,0.1943,0.1945,0.1946,0,0,0,0,0,0,0,0.173,0.173,0.1731,0.1742,0.1745,0.1763,0.1765,0.18,0.1822,0.1777,0.178,0.1784,0.1882,0.1884,0.1891,0.1942,0.194,0.1944,0.1946,0.1948,0.2035,0.2035,0,0,0,0,0,0,0.1724,0.1729,0.173,0.1732,0.1742,0.1762,0.1765,0.176,0.1819,0.1829,0.1783,0.1786,0.1876,0.1887,0.1896,0.1945,0.1945,0.1948,0.1951,0.2035,0.2035,0.2035,0,0,0,0,0,0,0.1724,0.1724,0.1729,0.1732,0.1734,0.176,0.1755,0.176,0.1778,0.1823,0.1834,0.1797,0.1878,0.1891,0.1929,0.1949,0.195,0.1954,0.2035,0.2035,0.2035,0.2016,0,0,0,0,0,0,0.1724,0.1723,0.1723,0.1731,0.1734,0.1746,0.1754,0.176,0.1778,0.1782,0.1839,0.1851,0.1879,0.1922,0.1933,0.1955,0.1957,0.2036,0.2035,0.2035,0.2016,0.2015,0.2014,0,0,0,0,0,0.1724,0.1724,0.1723,0.1724,0.1731,0.1746,0.175,0.1772,0.1777,0.1791,0.1816,0.185,0.1929,0.1925,0.1937,0.1961,0.2036,0.2035,0.2035,0.2017,0.2015,0.2014,0,0,0,0,0,0,0.1723,0.1728,0.1728,0.1728,0.1742,0.1754,0.1771,0.1775,0.1802,0.1814,0.1847,0.186,0.1904,0.1927,0.1922,0.1983,0.1989,0.1992,0.1971,0.197,0.1969,0.2004,0.196,0,0,0,0,0,0.172,0.1724,0.173,0.1733,0.1742,0.1754,0.1764,0.1778,0.1799,0.1812,0.1841,0.1876,0.1908,0.1935,0.1968,0.2,0.2014,0.2022,0.2021,0.2019,0.2055,0.2073,0.2076,0.2035,0.2035,0.2035,0,0,0.172,0.1724,0.1726,0.1734,0.1748,0.1763,0.1764,0.1788,0.1806,0.1823,0.1859,0.1877,0.1914,0.195,0.1972,0.1976,0.2028,0.2019,0.2018,0.2055,0.2073,0.2077,0.2081,0.2035,0.2035,0.2035,0,0,0.1724,0.1728,0.1734,0.175,0.1772,0.178,0.1788,0.1804,0.1823,0.1853,0.1863,0.189,0.1942,0.1965,0.1985,0.1997,0.2019,0.2004,0.2032,0.2047,0.2052,0.2056,0.2035,0.2037,0.2004,0.2004,0.2004,0,0.1724,0.1727,0.174,0.1756,0.177,0.1788,0.1802,0.1824,0.1848,0.186,0.1874,0.1927,0.1957,0.1992,0.2001,0.1999,0.1998,0.2033,0.2047,0.2051,0.2056,0.2034,0.2037,0.2003,0.2003,0.2003,0.2003,0,0.1734,0.1742,0.1754,0.1774,0.1793,0.1813,0.184,0.1859,0.188,0.1895,0.1937,0.1965,0.1998,0.2003,0.2019,0.2056,0.2039,0.2039,0.2052,0.2059,0.2035,0.2038,0.2002,0.2002,0.2002,0.2003,0,0,0.1706,0.175,0.1751,0.1764,0.1805,0.1817,0.1855,0.1882,0.1907,0.194,0.1969,0.202,0.2029,0.2054,0.2058,0.2084,0.2097,0.2085,0.2086,0.2067,0.2107,0.2016,0.2011,0.2098,0.2099,0.2101,0.206,0,0.1704,0.1729,0.1754,0.178,0.1794,0.1831,0.1861,0.1894,0.1933,0.1966,0.2002,0.2035,0.2048,0.2062,0.2092,0.2102,0.2114,0.2107,0.2104,0.2104,0.2025,0.2016,0.187,0.1817,0.2064,0.2064,0.2065,0,0.169,0.1712,0.1734,0.1777,0.1788,0.1811,0.186,0.1892,0.1949,0.198,0.2024,0.2051,0.2092,0.2105,0.2139,0.2132,0.2134,0.2139,0.2137,0.2078,0.2022,0.1859,0.1814,0.2071,0.207,0.207,0.207,0,0.1644,0.1688,0.1703,0.1721,0.1778,0.1798,0.1831,0.1891,0.1917,0.1987,0.2008,0.2065,0.2081,0.2118,0.2131,0.214,0.2159,0.2158,0.2072,0.2064,0.1956,0.1936,0.2193,0.2193,0.2193,0.2193,0.2193,0,0.1617,0.1629,0.1685,0.1695,0.1715,0.1773,0.1805,0.1848,0.1913,0.1935,0.2006,0.2024,0.2093,0.2106,0.2131,0.2099,0.2147,0.2088,0.2059,0.1937,0.1917,0.2166,0.2164,0.2192,0.2192,0.2192,0.2192,0,0.156,0.1596,0.1614,0.1675,0.1689,0.1707,0.1771,0.1797,0.1865,0.1898,0.1914,0.1986,0.2005,0.2043,0.2083,0.2064,0.2064,0.2039,0.1873,0.1826,0.1957,0.1954,0.1945,0.1941,0.1939,0.1936,0.1934,0,0.1536,0.1538,0.1581,0.1589,0.1617,0.1653,0.1672,0.1753,0.1781,0.186,0.186,0.1904,0.1915,0.1921,0.1909,0.1899,0.1981,0.1742,0.1748,0.1965,0.1938,0.1939,0.194,0.1575,0.1571,0.1567,0.1564,0,0.1494,0.1505,0.1521,0.1528,0.1547,0.1564,0.1604,0.1614,0.1699,0.1724,0.1755,0.1779,0.1786,0.1709,0.1689,0.1675,0.1737,0.1661,0.1934,0.1662,0.1614,0.1588,0.1601,0.1529,0.1533,0.1535,0.1537,0.1538,0.146,0.1452,0.1465,0.1464,0.1478,0.1474,0.1461,0.1502,0.1517,0.1538,0.161,0.1585,0.1593,0.1492,0.1436,0.1393,0.1527,0.1467,0.1481,0.1498,0.1464,0.1414,0.1283,0.1285,0.1287,0.1288,0.1289,0,0.1413,0.1406,0.1403,0.1391,0.1367,0.1404,0.1405,0.1377,0.1354,0.1391,0.1402,0.1278,0.1212,0.1227,0.1104,0.1089,0.1104,0.1049,0.1062,0.1096,0.1126,0.1076,0.0791,0.0789,0.0788,0.0786,0,0,0.139,0.136,0.1347,0.1284,0.1275,0.1226,0.121,0.1176,0.1175,0.1131,0.1101,0.1174,0.1196,0.0985,0.0948,0.0847,0.0973,0.0815,0.1217,0.1268,0.1297,0.1367,0.1327,0,0,0,0,0]},{"header":{"parameterUnit":"m.s-1","parameterCategory":2,"la1":30.2991,"la2":30.254,"lo1":-89.0895,"lo2":-89.0444,"dy":0.0017,"dx":0.0017,"nx":28,"ny":28,"refTime":"2024-04-03T21:00:00:Z","depth":"2","parameterNumber":3,"parameterNumberName":"V-component_of_CURRENTS"},"data":[0,0,0,0,0,0,0,0,0,0,0,0,0,0,0,0,0,0,0,0,0,0,0,0,0,0,0,0,0,0,0,0,0,0,0,0,0,0,0,0,0,0,0,0,0,0,0,0,0,0,0,0,0,0,0,0,0,0,0.0193,0.0192,0,0.0174,0.0174,0.0174,0.0149,0.0149,0.0148,0.0148,0.0102,0.0101,0.01,0,0,0,0,0,0,0,0,0,0,0,0,0,0.0188,0.0188,0.0193,0.0192,0.0192,0.0174,0.0174,0.0174,0.0149,0.0149,0.0148,0.0148,0.0103,0.0102,0.01,0,0,0,0,0,0,0,0,0,0,0,0,0,0.018,0.0188,0.0193,0.0179,0.0178,0.0175,0.0174,0.0174,0.0149,0.0149,0.0148,0.0148,0.0103,0.0102,0.01,0.01,0,0,0.0096,0.0095,0,0,0,0,0,0,0,0,0.0181,0.018,0.0181,0.018,0.0178,0.0165,0.0156,0.0148,0.0149,0.0158,0.0148,0.0147,0.0122,0.0119,0.0115,0.0098,0.0096,0.0096,0.0095,0.0094,0.0094,0,0,0,0,0,0,0,0.0181,0.0181,0.0184,0.0181,0.0179,0.0168,0.0166,0.0154,0.0141,0.0157,0.0156,0.0156,0.0121,0.0116,0.0113,0.0095,0.0096,0.0095,0.0094,0.0093,0.0066,0.0066,0,0,0,0,0,0,0.0188,0.0182,0.0184,0.0183,0.018,0.0168,0.0166,0.0168,0.0142,0.0138,0.0157,0.0155,0.0119,0.0115,0.0112,0.0119,0.0094,0.0093,0.0092,0.0065,0.0066,0.0066,0,0,0,0,0,0,0.0188,0.0189,0.0185,0.0183,0.0182,0.0169,0.0171,0.0168,0.0164,0.0142,0.0137,0.0156,0.0118,0.0114,0.0102,0.0117,0.0092,0.0091,0.0065,0.0065,0.0066,0.0128,0,0,0,0,0,0,0.0188,0.0189,0.0191,0.0184,0.0182,0.0188,0.0172,0.0168,0.0166,0.0163,0.0139,0.0135,0.0118,0.0105,0.0101,0.0114,0.009,0.0065,0.0065,0.0066,0.0126,0.013,0.0134,0,0,0,0,0,0.0188,0.0196,0.0192,0.0192,0.0187,0.0189,0.0187,0.0175,0.0166,0.0169,0.015,0.0135,0.0103,0.0104,0.0099,0.0113,0.0065,0.0065,0.0066,0.0124,0.0129,0.0134,0,0,0,0,0,0,0.0194,0.0194,0.0189,0.0196,0.0195,0.0185,0.0187,0.0179,0.0167,0.0162,0.0139,0.0133,0.0129,0.0108,0.011,0.0103,0.0081,0.008,0.0127,0.0132,0.0136,0.0144,0.0089,0,0,0,0,0,0.0198,0.0204,0.0201,0.0207,0.0207,0.0198,0.0196,0.0189,0.0178,0.0172,0.0156,0.0137,0.0127,0.012,0.0105,0.0102,0.0084,0.0106,0.011,0.0114,0.0117,0.0105,0.0108,0.0067,0.0067,0.0067,0,0,0.0203,0.0203,0.0207,0.0209,0.0206,0.0214,0.0195,0.0197,0.0204,0.0169,0.017,0.0152,0.0129,0.0128,0.0124,0.0113,0.0116,0.0114,0.0118,0.0118,0.0105,0.011,0.0113,0.0067,0.0067,0.0067,0,0,0.0219,0.0216,0.0228,0.0229,0.0229,0.0225,0.0228,0.022,0.0217,0.0215,0.0195,0.0185,0.0165,0.0156,0.0148,0.0165,0.014,0.0158,0.0187,0.0176,0.018,0.0183,0.0168,0.0169,0.0159,0.0159,0.016,0,0.0225,0.0239,0.0231,0.0243,0.025,0.0234,0.0249,0.0246,0.0235,0.0238,0.0221,0.0201,0.018,0.0187,0.0191,0.0177,0.0163,0.0175,0.0183,0.0186,0.0188,0.0172,0.0173,0.0162,0.0162,0.0162,0.0162,0,0.0251,0.0261,0.0269,0.028,0.0285,0.0295,0.0293,0.0296,0.0287,0.0281,0.0282,0.0255,0.0243,0.0237,0.0218,0.0226,0.0209,0.0194,0.0176,0.0196,0.0178,0.0177,0.0167,0.0166,0.0165,0.0164,0,0,0.0273,0.0285,0.029,0.0303,0.0306,0.0318,0.0331,0.0343,0.0358,0.0338,0.0355,0.0332,0.0314,0.0303,0.0281,0.0268,0.0269,0.0239,0.0237,0.0233,0.0242,0.0231,0.0228,0.0257,0.0257,0.0257,0.0225,0,0.0298,0.0331,0.0329,0.0361,0.0378,0.0373,0.0391,0.0398,0.0394,0.0403,0.0378,0.0379,0.0341,0.0339,0.0322,0.0283,0.0269,0.0279,0.0215,0.0213,0.0207,0.0228,0.024,0.0212,0.0225,0.0224,0.0224,0,0.0328,0.0347,0.0385,0.041,0.0418,0.0435,0.0465,0.0478,0.0482,0.0478,0.0469,0.0446,0.0429,0.0392,0.0338,0.0346,0.0299,0.0264,0.0262,0.0228,0.02,0.0191,0.021,0.0223,0.0223,0.0223,0.0223,0,0.0359,0.0387,0.0422,0.0431,0.0456,0.0476,0.049,0.0503,0.0523,0.0526,0.0536,0.0506,0.0494,0.0438,0.0358,0.0351,0.0294,0.0274,0.022,0.0218,0.0203,0.02,0.0237,0.0237,0.0237,0.0237,0.0237,0,0.039,0.0416,0.0441,0.0461,0.0509,0.0511,0.0557,0.0566,0.0583,0.0614,0.0577,0.0589,0.0504,0.0459,0.0382,0.0301,0.0311,0.023,0.0212,0.0224,0.0224,0.021,0.0207,0.0236,0.0236,0.0236,0.0237,0,0.0415,0.0431,0.0473,0.0509,0.0525,0.0559,0.0601,0.0632,0.064,0.0678,0.0683,0.0651,0.0594,0.0503,0.0409,0.0336,0.0257,0.0223,0.0241,0.0227,0.0182,0.0183,0.0167,0.0166,0.0166,0.0165,0.0165,0,0.0427,0.0453,0.0511,0.0542,0.056,0.0607,0.0643,0.0664,0.0698,0.0719,0.0744,0.0699,0.0679,0.0535,0.0403,0.0277,0.0254,0.0198,0.0184,0.0192,0.0177,0.0178,0.018,0.0188,0.0187,0.0187,0.0187,0,0.045,0.0474,0.0512,0.0578,0.0625,0.068,0.073,0.0766,0.0795,0.0824,0.0846,0.0829,0.0696,0.0573,0.0397,0.0306,0.022,0.0191,0.02,0.0205,0.0209,0.0195,0.0196,0.0186,0.0186,0.0186,0.0186,0.0186,0.0467,0.0498,0.0551,0.0615,0.0673,0.0744,0.0791,0.0842,0.0902,0.0943,0.092,0.0892,0.0751,0.0527,0.0374,0.0208,0.0218,0.0157,0.0159,0.016,0.0169,0.0173,0.0144,0.0144,0.0144,0.0144,0.0144,0,0.0482,0.0523,0.0581,0.0659,0.0722,0.0752,0.0844,0.0892,0.0963,0.0991,0.1002,0.0857,0.0717,0.0547,0.0312,0.0174,0.0158,0.0119,0.0137,0.014,0.0142,0.015,0.012,0.0119,0.0119,0.0118,0,0,0.0492,0.0547,0.058,0.0685,0.074,0.0828,0.0884,0.0959,0.1004,0.103,0.1007,0.0966,0.0768,0.0592,0.0403,0.0267,0.0232,0.023,0.0266,0.0314,0.0317,0.0181,0.0199,0,0,0,0,0]}],[{"header":{"parameterUnit":"m.s-1","parameterCategory":2,"la1":30.2991,"la2":30.254,"lo1":-89.0895,"lo2":-89.0444,"dy":0.0017,"dx":0.0017,"nx":28,"ny":28,"refTime":"2024-04-03T21:00:00:Z","depth":"4","parameterNumber":2,"parameterNumberName":"U-component_of_CURRENTS"},"data":[0,0,0,0,0,0,0,0,0,0,0,0,0,0,0,0,0,0,0,0,0,0,0,0,0,0,0,0,0,0,0,0,0,0,0,0,0,0,0,0,0,0,0,0,0,0,0,0,0,0,0,0,0,0,0,0,0,0,0.0892,0.0892,0,0.0897,0.0897,0.0897,0.0924,0.0925,0.0925,0.0926,0.0912,0.0911,0.091,0,0,0,0,0,0,0,0,0,0,0,0,0,0.0928,0.0928,0.0892,0.0892,0.0892,0.0897,0.0897,0.0897,0.0924,0.0925,0.0926,0.0926,0.0912,0.0911,0.091,0,0,0,0,0,0,0,0,0,0,0,0,0,0.0922,0.0927,0.0892,0.0905,0.0907,0.0897,0.0897,0.0897,0.0924,0.0925,0.0926,0.0927,0.0913,0.0911,0.091,0.0885,0,0,0.0906,0.0905,0,0,0,0,0,0,0,0,0.0922,0.0921,0.0904,0.0904,0.0906,0.091,0.0905,0.0892,0.0924,0.0919,0.0926,0.0927,0.0908,0.0907,0.0908,0.0885,0.0884,0.0906,0.0905,0.0905,0.0904,0,0,0,0,0,0,0,0.0922,0.0921,0.0895,0.0903,0.0905,0.0918,0.0918,0.0903,0.0909,0.0919,0.0921,0.0919,0.0909,0.0909,0.0908,0.0884,0.0906,0.0905,0.0904,0.0903,0.093,0.0931,0,0,0,0,0,0,0.0917,0.0921,0.0895,0.0895,0.0915,0.0917,0.0917,0.0909,0.091,0.0911,0.0919,0.0921,0.0911,0.091,0.0908,0.0953,0.0905,0.0903,0.0903,0.0928,0.093,0.0932,0,0,0,0,0,0,0.0918,0.0915,0.0895,0.0908,0.0906,0.0915,0.0906,0.0908,0.093,0.0909,0.091,0.0941,0.0912,0.0909,0.0927,0.095,0.0903,0.0901,0.0926,0.0929,0.0931,0.0996,0,0,0,0,0,0,0.0919,0.0915,0.092,0.0907,0.0905,0.0897,0.0905,0.0908,0.0926,0.0929,0.0928,0.0926,0.0912,0.093,0.0926,0.0947,0.09,0.0924,0.0927,0.093,0.0992,0.1,0.1007,0,0,0,0,0,0.092,0.0916,0.092,0.0918,0.0907,0.0897,0.0898,0.0908,0.0927,0.0933,0.095,0.0928,0.0945,0.093,0.0925,0.0947,0.0923,0.0927,0.093,0.0988,0.0999,0.1007,0,0,0,0,0,0,0.0934,0.0917,0.0922,0.0914,0.0912,0.0901,0.0912,0.092,0.0938,0.0955,0.0942,0.0942,0.0968,0.0949,0.0933,0.0965,0.0931,0.0934,0.0978,0.0987,0.0994,0.0982,0.0899,0,0,0,0,0,0.0938,0.0932,0.092,0.0916,0.0919,0.0922,0.0926,0.0934,0.0941,0.0951,0.0955,0.0964,0.0974,0.0975,0.0977,0.0985,0.0972,0.0999,0.1006,0.1013,0.1002,0.1028,0.1037,0.0943,0.0943,0.0942,0,0,0.0943,0.0933,0.0931,0.092,0.0923,0.0926,0.0927,0.0939,0.0951,0.0945,0.0977,0.099,0.0984,0.1007,0.1016,0.0995,0.1033,0.1017,0.1023,0.1007,0.1033,0.1042,0.105,0.0945,0.0944,0.0944,0,0,0.0942,0.0942,0.0939,0.094,0.0945,0.0945,0.0954,0.0961,0.0979,0.1001,0.1015,0.1044,0.1046,0.1054,0.1055,0.1101,0.1078,0.111,0.1131,0.1158,0.1166,0.1173,0.1167,0.1172,0.1109,0.1109,0.1109,0,0.0957,0.0942,0.0939,0.0939,0.0945,0.0957,0.0964,0.0976,0.0994,0.1013,0.102,0.1067,0.1064,0.1095,0.1118,0.1116,0.1122,0.1097,0.1168,0.1174,0.118,0.1172,0.1177,0.1112,0.1112,0.1112,0.1111,0,0.0946,0.0949,0.0949,0.0953,0.0961,0.0967,0.0981,0.1007,0.1035,0.1048,0.1098,0.1111,0.114,0.1149,0.1145,0.1191,0.1179,0.118,0.1143,0.1193,0.1182,0.1186,0.1117,0.1116,0.1115,0.1114,0,0,0.0943,0.0943,0.0947,0.0954,0.0971,0.0973,0.1007,0.103,0.1062,0.1094,0.1133,0.1165,0.1193,0.1196,0.121,0.1226,0.1273,0.1224,0.1224,0.1213,0.132,0.123,0.1225,0.1299,0.1301,0.1301,0.1296,0,0.0942,0.0938,0.0944,0.096,0.0963,0.0993,0.1019,0.1051,0.1085,0.1128,0.1159,0.1201,0.1205,0.1237,0.1261,0.1277,0.1288,0.1272,0.1276,0.1274,0.1185,0.1228,0.1305,0.1299,0.13,0.13,0.1301,0,0.093,0.0928,0.0936,0.0962,0.0971,0.0993,0.1046,0.1073,0.1132,0.1165,0.1219,0.1246,0.1294,0.1286,0.1332,0.1331,0.1329,0.1325,0.1325,0.1215,0.1192,0.1238,0.1308,0.1307,0.1307,0.1306,0.1306,0,0.0912,0.0926,0.0932,0.0939,0.097,0.1002,0.1034,0.1092,0.1126,0.1198,0.1237,0.1293,0.1336,0.1354,0.1364,0.1362,0.1392,0.1386,0.1292,0.1284,0.1337,0.133,0.1401,0.1401,0.1401,0.1401,0.1401,0,0.0893,0.0905,0.0929,0.0932,0.0961,0.0999,0.105,0.1092,0.1163,0.1204,0.1267,0.1304,0.136,0.1387,0.138,0.1349,0.1413,0.129,0.1281,0.1364,0.1361,0.134,0.1333,0.1401,0.1401,0.1401,0.1401,0,0.0872,0.0883,0.0895,0.0933,0.095,0.0979,0.1054,0.1088,0.1166,0.1225,0.1253,0.1332,0.1366,0.139,0.141,0.1362,0.1339,0.1306,0.1379,0.1376,0.1203,0.12,0.1195,0.1192,0.1189,0.1187,0.1185,0,0.0856,0.0855,0.089,0.0901,0.0925,0.0973,0.1003,0.1081,0.1116,0.1226,0.1243,0.1312,0.135,0.1302,0.1336,0.1305,0.1286,0.1252,0.1232,0.1192,0.1185,0.1186,0.1186,0.1181,0.118,0.1179,0.1179,0,0.0828,0.0849,0.0859,0.0875,0.0905,0.093,0.0983,0.1002,0.1091,0.1171,0.1199,0.1209,0.124,0.1245,0.1231,0.1209,0.1265,0.1224,0.1229,0.1209,0.1175,0.1171,0.1174,0.1169,0.1171,0.1172,0.1172,0,0.0817,0.0815,0.0828,0.0837,0.087,0.0875,0.091,0.0942,0.0982,0.1097,0.1101,0.117,0.1235,0.1194,0.1184,0.1156,0.1129,0.1071,0.1084,0.1094,0.1063,0.1005,0.0936,0,0,0,0,0,0.0793,0.0778,0.0785,0.0782,0.0815,0.083,0.0885,0.0923,0.1005,0.0994,0.1045,0.1064,0.1061,0.1091,0.1039,0.113,0.1131,0.1062,0.1071,0.1118,0.1129,0.1101,0,0,0,0,0,0,0.0773,0.0779,0.0763,0.0734,0.0727,0.0749,0.0783,0.0838,0.0833,0.0923,0.0927,0.0986,0.1,0.1081,0.1018,0.1023,0.1,0.1099,0.1095,0.1112,0.1122,0.113,0.1105,0,0,0,0,0]},{"header":{"parameterUnit":"m.s-1","parameterCategory":2,"la1":30.2991,"la2":30.254,"lo1":-89.0895,"lo2":-89.0444,"dy":0.0017,"dx":0.0017,"nx":28,"ny":28,"refTime":"2024-04-03T21:00:00:Z","depth":"4","parameterNumber":3,"parameterNumberName":"V-component_of_CURRENTS"},"data":[0,0,0,0,0,0,0,0,0,0,0,0,0,0,0,0,0,0,0,0,0,0,0,0,0,0,0,0,0,0,0,0,0,0,0,0,0,0,0,0,0,0,0,0,0,0,0,0,0,0,0,0,0,0,0,0,0,0,0.0256,0.0256,0,0.0278,0.0279,0.0279,0.0299,0.03,0.03,0.03,0.0318,0.0319,0.0319,0,0,0,0,0,0,0,0,0,0,0,0,0,0.0223,0.0223,0.0256,0.0256,0.0257,0.0278,0.0279,0.0279,0.0299,0.03,0.03,0.03,0.0318,0.0319,0.0319,0,0,0,0,0,0,0,0,0,0,0,0,0,0.024,0.0223,0.0256,0.0269,0.0271,0.0278,0.0279,0.0279,0.0299,0.03,0.03,0.03,0.0318,0.0319,0.0319,0.0313,0,0,0.032,0.032,0,0,0,0,0,0,0,0,0.0239,0.0241,0.0267,0.0269,0.027,0.0287,0.0274,0.029,0.0299,0.0288,0.03,0.03,0.0307,0.0308,0.0312,0.0314,0.0315,0.032,0.032,0.032,0.032,0,0,0,0,0,0,0,0.0238,0.024,0.0265,0.0267,0.0269,0.0272,0.0275,0.0277,0.0295,0.0289,0.0291,0.0293,0.0308,0.0311,0.0312,0.0315,0.032,0.032,0.0321,0.0321,0.0308,0.0307,0,0,0,0,0,0,0.0236,0.0239,0.0264,0.0265,0.0255,0.0272,0.0275,0.0281,0.0295,0.0298,0.0293,0.0294,0.031,0.0312,0.0313,0.0317,0.032,0.0321,0.0321,0.0308,0.0308,0.0307,0,0,0,0,0,0,0.0235,0.0238,0.0263,0.0253,0.0256,0.0272,0.0278,0.0281,0.0292,0.0298,0.0301,0.0302,0.0311,0.0312,0.0317,0.0317,0.0321,0.0321,0.0309,0.0308,0.0307,0.0318,0,0,0,0,0,0,0.0234,0.0237,0.0242,0.0253,0.0257,0.027,0.0278,0.0281,0.0292,0.0294,0.0306,0.0308,0.0311,0.0316,0.0317,0.0318,0.0322,0.031,0.0309,0.0308,0.0319,0.0318,0.0317,0,0,0,0,0,0.0233,0.0238,0.0242,0.0245,0.0262,0.027,0.0272,0.0285,0.0292,0.0296,0.0302,0.0308,0.031,0.0316,0.0317,0.0318,0.031,0.0309,0.0308,0.0319,0.0318,0.0317,0,0,0,0,0,0,0.0225,0.0241,0.0246,0.0255,0.0263,0.0274,0.028,0.0287,0.0296,0.03,0.0306,0.0308,0.0311,0.0309,0.0316,0.0308,0.0309,0.0308,0.0317,0.0316,0.0315,0.0322,0.0322,0,0,0,0,0,0.0225,0.0235,0.0245,0.0254,0.0258,0.027,0.0276,0.0283,0.0291,0.0296,0.0302,0.0304,0.0304,0.0307,0.0306,0.0306,0.0295,0.0303,0.0303,0.0302,0.0307,0.0285,0.0283,0.0303,0.0303,0.0303,0,0,0.0225,0.0234,0.0241,0.0253,0.0262,0.0272,0.0275,0.0285,0.0294,0.0296,0.0308,0.0305,0.0303,0.0303,0.0303,0.0304,0.0289,0.0301,0.0301,0.0306,0.0284,0.0282,0.028,0.0302,0.0302,0.0302,0,0,0.0231,0.0238,0.025,0.0257,0.027,0.0275,0.0279,0.029,0.0296,0.0303,0.0304,0.03,0.0304,0.03,0.03,0.0293,0.0287,0.029,0.0296,0.0274,0.0273,0.0271,0.0251,0.0248,0.0289,0.0289,0.0289,0,0.0232,0.025,0.0253,0.0266,0.0277,0.0279,0.0294,0.0296,0.0305,0.031,0.0308,0.0306,0.0303,0.0303,0.0298,0.0293,0.028,0.0303,0.0275,0.0273,0.0271,0.0251,0.0247,0.029,0.029,0.029,0.029,0,0.0249,0.0263,0.027,0.0289,0.0296,0.0309,0.0313,0.0318,0.0323,0.0324,0.0323,0.0312,0.0314,0.0304,0.0302,0.0289,0.0283,0.0278,0.028,0.027,0.0249,0.0245,0.029,0.029,0.029,0.029,0,0,0.0259,0.028,0.0285,0.03,0.0312,0.0324,0.0332,0.0343,0.0355,0.0344,0.0354,0.0338,0.0331,0.0328,0.0317,0.0293,0.0266,0.0282,0.0281,0.0269,0.0218,0.0218,0.0214,0.0257,0.0257,0.0256,0.0207,0,0.0277,0.0306,0.0311,0.034,0.0356,0.036,0.0371,0.0376,0.0376,0.038,0.0358,0.0361,0.034,0.0342,0.0314,0.0284,0.0256,0.028,0.0224,0.0222,0.023,0.021,0.0254,0.0204,0.0203,0.0202,0.0201,0,0.0297,0.0316,0.0349,0.0374,0.0383,0.0399,0.0423,0.0433,0.0429,0.0427,0.0416,0.04,0.0372,0.0353,0.0289,0.0306,0.0263,0.023,0.0228,0.0224,0.0215,0.0215,0.0194,0.0195,0.0195,0.0196,0.0196,0,0.0314,0.0344,0.0374,0.0384,0.041,0.0429,0.0444,0.045,0.0464,0.0459,0.0464,0.0427,0.0416,0.0355,0.0288,0.0289,0.021,0.0205,0.0162,0.0161,0.0173,0.0175,0.0152,0.0152,0.0152,0.0152,0.0152,0,0.0333,0.0358,0.0388,0.0407,0.0447,0.0455,0.0493,0.0499,0.0508,0.0524,0.0493,0.0491,0.0415,0.0362,0.0295,0.0217,0.0215,0.016,0.0147,0.0177,0.018,0.0169,0.0172,0.015,0.0151,0.0151,0.0151,0,0.0344,0.0364,0.0403,0.0441,0.0458,0.0488,0.053,0.0551,0.0557,0.0575,0.0576,0.0537,0.0474,0.039,0.0292,0.0234,0.0155,0.0125,0.0163,0.0153,0.0118,0.0121,0.0077,0.0076,0.0076,0.0075,0.0075,0,0.035,0.0373,0.043,0.0459,0.0481,0.0526,0.0556,0.0576,0.0596,0.0602,0.0608,0.056,0.0524,0.0383,0.0295,0.0166,0.0146,0.01,0.0106,0.0117,0.0109,0.0114,0.0118,0.0075,0.0075,0.0074,0.0074,0,0.0361,0.0387,0.042,0.0479,0.0522,0.0569,0.0611,0.0627,0.0647,0.0653,0.063,0.0564,0.0494,0.0387,0.0288,0.0194,0.0128,0.0096,0.0096,0.0101,0.0114,0.0108,0.0112,0.0073,0.0073,0.0073,0.0073,0,0.0369,0.0394,0.0441,0.0493,0.0549,0.0596,0.0619,0.0639,0.0658,0.0658,0.0649,0.0575,0.0533,0.0402,0.0309,0.0219,0.0197,0.0159,0.0155,0.0155,0.0193,0.0223,0.0201,0,0,0,0,0,0.0371,0.04,0.0448,0.0506,0.0561,0.0596,0.0647,0.0663,0.0682,0.0667,0.0658,0.0592,0.0464,0.0411,0.0322,0.0302,0.0181,0.0194,0.0135,0.0066,0.0068,0.0099,0,0,0,0,0,0,0.0373,0.0416,0.0444,0.0508,0.0547,0.0607,0.0644,0.0657,0.0648,0.0651,0.0586,0.0559,0.0437,0.0512,0.0316,0.0291,0.0239,0.0138,0.0136,0.0065,0.0067,0.0068,0.01,0,0,0,0,0]}]]